Location: Archemont
(49.1579°N, 1.7598°E)
Time: 11:01:41
(UTC+00:00)

deb Explorer IX - Pass Details

Date: 22 April 2024
Orbit: 513 x 891 km, 38.7° (Epoch: 23 May)

Event Time Altitude Azimuth Distance (km) Brightness Sun altitude
Rises 12:00:13 0° 247° (WSW) 3,404 ? 53.3°
Reaches altitude 10° 12:02:58 10° 237° (WSW) 2,510 ? 53.2°
Maximum altitude 12:08:12 31° 178° (S) 1,516 ? 53.1°
Drops below altitude 10° 12:13:33 10° 118° (ESE) 2,573 ? 53.0°
Sets 12:16:24 0° 109° (ESE) 3,503 ? 52.9°
